www.pogodaiklimat.ru

Архив погоды в Костроме (Костромская область, Россия)

Время
(UTC), дата
09 9.05
12 9.05
15 9.05
18 9.05
21 9.05
00 10.05
03 10.05
06 10.05
09 10.05
12 10.05
15 10.05
18 10.05
21 10.05
00 11.05
03 11.05
06 11.05
09 11.05
12 11.05
15 11.05
18 11.05
21 11.05
00 12.05
03 12.05
06 12.05
09 12.05
12 12.05
15 12.05
18 12.05
21 12.05
00 13.05
03 13.05
06 13.05
09 13.05
12 13.05
15 13.05
18 13.05
21 13.05
00 14.05
03 14.05
06 14.05
09 14.05
12 14.05
15 14.05
18 14.05
21 14.05
00 15.05
03 15.05
06 15.05
09 15.05
12 15.05
15 15.05
18 15.05
21 15.05
00 16.05
03 16.05
06 16.05
Ветер
(напр.,м/с)
Видим. Явления Облачность Т
(С)
Тd
(С)
f
(%)
Тe
(С)
Тes
(С)
Комфортность P
(гПа)
Po
(гПа)
Тmin
(С)
Tmax
(С)
R
(мм)
R24
(мм)
S
(см)
С 5 20 км 9/8 600 м
[Cb calv Ac As]
+7.5 +2.3 70 +4 +5 по сезону 1018.2 1002.6
С 5
{10}
20 км 8/5 600 м
[Cb calv Ac trans]
+10.0 -0.2 49 +7 +9 по сезону 1018.4 1003.0
С 4
{11}
20 км 9/4 600 м
[Cb calv Ac lent Ci fib]
+9.9 -4.4 36 +8 +8 по сезону 1017.9 1002.4 +11.4
С 4 50 км {ливн. дождь} 9/8 600 м
[Cb calv Ac As]
+8.2 -3.8 42 +6 +6 по сезону 1018.8 1003.3
С 4
{12}
50 км 10/6 600 м
[Cb calv Ac lent]
+6.8 -2.0 53 +4 +4 по сезону 1018.3 1002.7
С 5
{10}
50 км 10/8 600 м
[Cb calv Ac und]
+5.2 -3.4 54 +1 +1 холодно 1018.0 1002.3
С 6
{10}
20 км 10/5 600 м
[Cb calv Ac und]
+4.3 -1.8 64 -1 -1 очень
холодно
1017.3 1001.6 +4.1 0.0
С 7-13
{13}
20 км слаб. ливневой дождь 10/8 600 м
[Cb cap Ac As]
+4.9 -1.5 63 -0 -0 очень
холодно
1016.0 1000.3
С 8-13
{15}
20 км 9/1 600 м
[Cu hum Ac trans Ci]
+9.5 -2.8 42 +6 +7 холодно 1014.7 999.3
С 7-11
{14}
20 км 10/1 600 м
[Cu hum Ci]
+13.0 -2.2 35 +11 +13 прохладно 1013.8 998.6
С 4
{12}
20 км 10/3 600 м
[Cu hum Ac trans Ci]
+13.1 -2.0 35 +12 +12 по сезону 1013.5 998.3 +13.8 0.0
С 5
{12}
50 км 10/3 600 м
[Cu hum Ac trans Ci]
+11.3 -2.1 39 +9 +9 по сезону 1013.1 997.8
С 3 50 км 8/1 600 м
[Cu hum Ac trans]
+9.3 -2.5 43 +8 +8 по сезону 1011.9 996.5
С 2 50 км 9/1 600 м
[Cu hum Ac trans]
+7.0 -2.3 52 +5 +5 по сезону 1010.9 995.5
С 4 20 км 9/1 600 м
[Cu hum Ac As]
+8.0 -2.9 46 +5 +6 прохладно 1010.0 994.6 +6.8
С 5
{10}
20 км 10/3 600 м
[Cb calv Ac trans Ci fib]
+11.4 -1.3 41 +9 +11 по сезону 1008.8 993.6
С 5
{11}
20 км 10/0
[Ac As]
+14.8 -0.7 35 +14 +16 тепло 1007.4 992.4
С 2
{10}
20 км 10/5 600 м
[Sc diur, vesp Ac und]
+15.4 -0.3 34 +16 +17 тепло 1006.5 991.5
С 1 20 км 10/8 600 м
[Cb calv Ac As]
+13.9 +0.7 40 +15 +15 тепло 1005.7 990.6 +16.6
Ю 2 50 км 9/8 600 м
[Cb calv Ac As]
+10.7 +2.1 55 +10 +10 по сезону 1006.0 990.8
ЮЗ 2 50 км 10/5 600 м
[Sc diur, vesp Ac und]
+8.8 +1.7 61 +7 +7 по сезону 1005.6 990.3
З 1 50 км 10/3 600 м
[Sc diur, vesp Ac As]
+8.4 -1.6 49 +8 +8 по сезону 1004.7 989.4
Ю 1 20 км 6/1 600 м
[Sc diur, vesp Ac lent]
+10.4 -2.2 41 +11 +11 тепло 1004.2 989.0 +6.2
Ю 2 20 км 10/3 600 м
[Cu hum Ac trans Ci fib]
+16.1 -1.5 30 +16 +19 тепло 1003.1 988.2
ЮЗ 4 20 км 9/8 600 м
[Cb calv Ac lent]
+18.9 +1.6 31 +19 +20 тепло 1001.9 987.2
Ю 3 20 км в посл. час ливневой дождь 10/8 600 м
[Cb calv Ac und]
+17.6 +2.7 37 +18 +18 тепло 1001.0 986.2
ЮВ 6 20 км {ливн. дождь} 10/8 600 м
[Cb calv Ac und]
+13.9 +8.2 68 +12 +12 по сезону 999.5 984.6 +19.5 0.1
ЮВ 8-11
{12}
50 км 10/8 600 м
[Cb calv Ac und]
+11.2 +7.0 75 +8 +8 по сезону 996.9 981.9
ЮВ 6-10
{13}
20 км слаб. ливневой дождь 10/8 600 м
[Cb calv Ac und]
+9.2 +7.4 88 +5 +5 прохладно 992.7 977.6
Ю 6-11
{12}
20 км слаб. ливневой дождь 10/8 600 м
[Cb calv Ac und]
+10.4 +9.8 96 +7 +7 по сезону 987.5 972.6
З 6-11
{17}
20 км {ливн. дождь} 10/9 600 м
[Cb calv Ac und]
+8.4 +4.8 78 +4 +4 прохладно 993.5 978.4 +8.4 3
З 4
{11}
20 км {ливн. дождь} 10/9 600 м
[Cb calv Ac As]
+9.5 +5.4 76 +7 +7 прохладно 995.8 980.7
ЮЗ 5
{11}
20 км в посл. час ливневой дождь 6/6 600 м
[Cb calv]
+12.0 +6.3 68 +10 +13 по сезону 996.6 981.6
ЮЗ 7-13
{13}
20 км гроза, ливневой дождь 9/6 600 м
[Cb cap Ci fib]
+10.1 +6.4 78 +6 +7 очень
холодно
998.1 983.0
ЮЗ 3
{12}
20 км {гроза, ливн. дождь} 10/5 600 м
[Cb calv Ci fib]
+13.3 +5.3 58 +12 +13 по сезону 996.9 982.0 +14.3 1
Ю 3
{16}
20 км в посл. час ливневой дождь {гроза} 10/4 600 м
[Cb calv Ci fib]
+7.6 +6.4 92 +5 +5 холодно 997.4 982.2
ЮЗ 6-10
{10}
50 км {ливн. дождь} 10/3 600 м
[Cb calv Ci fib]
+9.5 +6.4 81 +6 +6 по сезону 996.4 981.3
ЮЗ 4 50 км {ливн. дождь} 10/8 600 м
[Cb calv Ac As]
+9.3 +6.1 80 +6 +6 по сезону 996.0 980.9
ЮЗ 6-10
{13}
20 км 10/9 600 м
[Cb calv Ac trans]
+10.2 +4.7 69 +7 +7 по сезону 996.1 981.0 +7.6 2
З 6-10
{14}
20 км 9/8 600 м
[Cb cap Ac trans]
+12.2 +5.0 61 +10 +10 по сезону 996.5 981.5
н/о н/о +12.8 0.0 41 997.3 982.4
ЮЗ 5
{12}
20 км {ливн. дождь} 10/8 600 м
[Cb cap Ac trans]
+12.4 +5.7 64 +10 +11 прохладно 998.4 983.4
З 5-10
{10}
20 км {ливн. дождь} 9/8 600 м
[Cb cap Ac trans]
+11.7 +5.0 63 +9 +10 прохладно 999.4 984.3 +13.3 0.0
З 4
{10}
20 км {ливн. дождь} 9/8 600 м
[Cb cap Ac trans]
+10.3 +4.8 69 +8 +8 по сезону 999.6 984.5
ЮЗ 3 50 км 8/3 600 м
[Cu hum Ac trans]
+8.5 +4.8 78 +6 +6 по сезону 1000.0 984.8
ЮЗ 2 50 км 8/3 600 м
[Cb cap Ac trans]
+7.9 +5.3 84 +6 +6 по сезону 1000.0 984.7
З 3 20 км 8/4 600 м
[Cu hum Ac trans]
+8.5 +5.8 83 +6 +6 по сезону 1000.0 984.8 +7.6 0.0
З 4 20 км 9/5 600 м
[Cu med, cong Ac As]
+12.1 +5.6 64 +10 +12 по сезону 999.8 984.8
З 3 20 км в посл. час ливневой дождь 9/8 300 м
[Cb cap Ac lent]
+13.0 +4.0 54 +12 +13 по сезону 999.8 984.8
СВ 2 20 км {ливн. дождь} 9/6 600 м
[Cb cap Ac lent]
+14.8 +6.3 57 +15 +16 по сезону 999.3 984.4
С 5 20 км в посл. час ливневой дождь 10/4 600 м
[Cb cap Ac lent Ci]
+12.2 +5.9 65 +10 +10 прохладно 1000.3 985.3 +17.4 0.3
ЮЗ 2 20 км слаб. ливневой дождь 10/5 600 м
[Cb cap Ac und]
+9.4 +6.1 80 +8 +8 по сезону 1000.9 985.7
З 1 20 км слаб. дождь {ливн. дождь} 10/5 600 м
[Cb cap Ac As]
+8.4 +7.1 92 +8 +8 по сезону 1000.9 985.7
З 3 10 км слаб. дождь {ливн. дождь} 10/6 600 м
[Sc diur, vesp Ac As]
+8.2 +7.6 96 +5 +5 по сезону 1000.1 984.9
З 3 10 км слаб. дождь 10/9 600 м
[Sc Ac As]
+8.2 +7.6 96 +5 +5 по сезону 999.8 984.6 +7.7 6
З 3 10 км слаб. дождь 10/8 600 м
[Sc Ac As]
+7.9 +7.3 96 +5 +5 прохладно 1000.1 984.8
Местоположение метеостанции Кострома (Костромская область, Россия): широта 57.73 долгота 40.78 высота над уровнем моря 126 м.
В архиве по умолчанию представлена погода в Костроме за последнюю неделю. Архивные данные за месяц целиком и за предыдущие месяцы, начиная с января 2011 года, Вы можете получить, выбрав интересующий диапазон дат из раскрывающегося списка и нажав кнопку "Найти!".
*Определитесь, кто Вы:
Внимание! Время в таблицах - всемирное. Для получения местного времени необходимо прибавить поправку, которая равна 3 ч.
Смотрите также архив погоды в соседних городах и на ближайших метеорологических станциях:
Партнеры нашего сайта:      
Пояснения к столбцам:
  • Ветер - указаны скорость ветра в м/с - средняя за 10 мин, порывы в срок и между сроками (в фигурных скобках) и направление, откуда дует ветер: С - северный,
  • СВ - северо-восточный, В - восточный, ЮВ - юго-восточный, Ю - южный, ЮЗ - юго-западный, З - западный, СЗ - северо-западный.
  • Видимость - горизонтальная дальность видимости в метрах или километрах. При видимости от 1 до 10 км при отсутствии осадков обычно наблюдается дымка, при ухудшении видимости до 1 км и менее - туман. В сухую погоду видимость может ухудшаться дымом, пылью или мглою.
  • Явления - указаны атмосферные явления, наблюдавшиеся в срок или в последний час перед сроком; фигурными скобками обозначены явления, наблюдавшиеся между сроками (за 1-3 часа до срока); квадратными скобками обозначены град или гололедные отложения с указанием их диаметра в мм.
  • Облачность - указаны через наклонную черту общая и нижняя облачность в баллах и высота нижней границы облаков в метрах; квадратными скобками обозначены формы облаков: Ci - перистые, Cs - перисто-слоистые, Cc - перисто-кучевые, Ac - высококучевые, As - высокослоистые, Sc - слоисто-кучевые, Ns - слоисто-дождевые, Cu - кучевые, Cb - кучево-дождевые. Подробнее классификацию облаков см. в Атласе облаков (PDF).
  • T - Температура воздуха - температура, измеренная на высоте 2 м над землей.
  • Td - Температура точки росы - температура, при понижении до которой содержащийся в воздухе водяной пар достигнет насыщения.
  • f - Относительная влажность воздуха - влажноcть воздуха, измеренная на высоте 2 м над землей.
  • Te - Эффективная температура - температура, которую ощущает одетый по сезону человек в тени. Характеристика душности погоды. При расчете учитывается влияние влажности воздуха и скорости ветра на теплоощущения человека.
  • Tes - Эффективная температура на солнце - температура, которую ощущает человек, с поправкой на солнечный нагрев. Характеристика знойности погоды. Зависит от высоты солнца над горизонтом, облачности и скорости ветра. Ночью, в пасмурную погоду, а также при ветре 12 м/с и более поправка равна нулю.
  • P - Атмосферное давление - приведенное к уровню моря атмосферное давление.
  • Po - Атмосферное давление - измеренное на уровне метеостанции атмосферное давление.
  • Tmin - Минимальная температура - минимум температуры воздуха на высоте 2 м над землей.
  • Tmax - Максимальная температура - максимум температуры воздуха на высоте 2 м над землей.
  • R - Количество осадков - Количество выпавших осадков за период времени, мм. При наведении курсора мыши на число - период времени, за который выпало указанное количество осадков.
  • R24 - Количество осадков - Количество выпавших осадков за 24 часа, мм.
  • S - Снежный покров - Высота снежного покрова, см. При наведении курсора мыши на число - состояние снежного покрова и степень покрытия местности в баллах.